Hourly Data Report for June 09, 2021

WRIGLEY A
NORTHWEST TERRITORIES
Current Station Operator: NAVCAN

63°12'35.000" N
123°26'12.000" W
149.70 m
2204005
YWY

Download Data

Hourly Data (June 2021)
Hourly Data Report for June 9, 2021
TIME
LST
Temp Definition
°C
Dew Point Definition
°C
Rel Hum Definition
%
Precip. Amount Definition
mm

Wind Dir Definition
10's deg

Wind Spd Definition
km/h
Visibility Definition
km
Stn Press Definition
kPa
Hmdx Definition


Wind Chill Definition


Weather Definition


00:00 12.1 6.9 70 LegendMM 14 7 LegendMM 99.61     LegendNANA
01:00 11.5 6.7 72 LegendMM 14 12 LegendMM 99.57     LegendNANA
02:00 10.2 6.1 76 LegendMM 14 13 LegendMM 99.56     LegendNANA
03:00 8.9 6.5 85 LegendMM 15 14 LegendMM 99.57     LegendNANA
04:00 9.2 6.2 81 LegendMM 14 8 LegendMM 99.58     LegendNANA
05:00 9.1 5.9 80 LegendMM 13 9 LegendMM 99.59     LegendNANA
06:00 9.8 5.9 76 LegendMM 14 9 LegendMM 99.61     LegendNANA
07:00 10.8 6.1 73 LegendMM 13 10 LegendMM 99.61     LegendNANA
08:00 11.9 6.0 67 LegendMM 15 14 LegendMM 99.58     LegendNANA
09:00 13.4 5.2 58 LegendMM 15 14 LegendMM 99.55     LegendNANA
10:00 15.0 6.2 55 LegendMM 16 16 LegendMM 99.50     LegendNANA
11:00 17.2 6.8 50 LegendMM 14 15 LegendMM 99.48     LegendNANA
12:00 19.2 7.2 45 LegendMM 14 16 LegendMM 99.42     LegendNANA
13:00 20.9 6.1 38 LegendMM 14 13 LegendMM 99.35     LegendNANA
14:00 22.1 4.1 30 LegendMM 14 15 LegendMM 99.29     LegendNANA
15:00 23.4 4.4 29 LegendMM 14 14 LegendMM 99.22     LegendNANA
16:00 24.4 -0.6 19 LegendMM 15 17 LegendMM 99.17     LegendNANA
17:00 23.4 5.0 30 LegendMM 14 13 LegendMM 99.16     LegendNANA
18:00 23.7 4.4 28 LegendMM 14 10 LegendMM 99.11     LegendNANA
19:00 23.4 5.5 31 LegendMM 13 10 LegendMM 99.11     LegendNANA
20:00 23.9 2.8 25 LegendMM 14 12 LegendMM 99.10     LegendNANA
21:00 22.6 3.0 27 LegendMM 14 17 LegendMM 99.10     LegendNANA
22:00 20.8 4.6 34 LegendMM 13 8 LegendMM 99.12     LegendNANA
23:00 18.6 5.2 41 LegendMM 17 5 LegendMM 99.17     LegendNANA

Notes on Data Quality.

Legend

  • E = Estimated
  • M = Missing
  • NA = Not Available*
  • [empty] = Indicates an unobserved value
Date modified: